Decorah, IA

4:47 PM CST on December 05, 2019 (GMT -0600)
Decorah Municipal

Weather History for KDEH - October, 2019

Change the Weather History Date:

Thursday, October 24, 2019

  Actual Average Record
Temperature  
Mean Temperature 38 °F -  
Max Temperature 44 °F 57 °F 79 °F (1989)
Min Temperature 30 °F 39 °F 19 °F (1960)
Degree Days  
Heating Degree Days 27    
Moisture  
Dew Point 31 °F    
Average Humidity 77    
Maximum Humidity 100    
Minimum Humidity 46    
Precipitation  
Precipitation 0.00 in - - ()
Sea Level Pressure  
Sea Level Pressure 30.27 in    
Wind  
Wind Speed 4 mph ()    
Max Wind Speed 13 mph    
Max Gust Speed 21 mph    
Visibility 10.0 miles    
Events      
Averages and records for this station are not official NWS values.
T = Trace of Precipitation, MM = Missing Value Source: Averaged Metar Reports

Daily Weather History Graph

Daily Weather History Graph

Search for Another Location

Airport or City:

Astronomy

Oct. 24, 2019 Rise Set
Actual Time 7:31 AM CDT 6:10 PM CDT
Civil Twilight 7:02 AM CDT 6:39 PM CDT
Nautical Twilight 6:29 AM CDT 7:12 PM CDT
Astronomical Twilight 5:56 AM CDT 7:45 PM CDT
Moon 2:51 AM CDT (10/24) 4:46 PM CDT (10/24)
Length of Visible Light 11h 36m
Length of Day
10h 38m
Waning Crescent, 16% of the Moon is Illuminated
Oct 24
Waning Crescent
Oct 27
New
Nov 4
First Quarter
Nov 12
Full
Nov 19
Last Quarter

Hourly Weather History & Observations

Time (CDT) Temp. Windchill Dew Point Humidity Pressure Visibility Wind Dir Wind Speed Gust Speed Precip Events Conditions
12:15 AM 37.4 °F - 37.4 °F 100% 30.09 in 10.0 mi Calm Calm - N/A   Mostly Cloudy
12:35 AM 37.4 °F - 37.4 °F 100% 30.10 in 10.0 mi Calm Calm - N/A   Overcast
12:55 AM 37.4 °F 32.8 °F 37.4 °F 100% 30.11 in 10.0 mi Variable 5.8 mph - N/A   Overcast
1:15 AM 37.4 °F 33.8 °F 37.4 °F 100% 30.12 in 10.0 mi Variable 4.6 mph - N/A   Overcast
1:35 AM 37.4 °F 33.8 °F 37.4 °F 100% 30.14 in 10.0 mi WNW 4.6 mph - N/A   Overcast
1:55 AM 37.4 °F 33.8 °F 37.4 °F 100% 30.15 in 10.0 mi WNW 4.6 mph - N/A   Overcast
2:15 AM 39.2 °F 35.0 °F 37.4 °F 93% 30.16 in 10.0 mi Variable 5.8 mph - N/A   Overcast
2:35 AM 39.2 °F 35.9 °F 37.4 °F 93% 30.16 in 10.0 mi Variable 4.6 mph - N/A   Overcast
2:55 AM 39.2 °F 35.9 °F 37.4 °F 93% 30.16 in 10.0 mi WNW 4.6 mph - N/A   Overcast
3:15 AM 39.2 °F 35.0 °F 37.4 °F 93% 30.18 in 10.0 mi NW 5.8 mph - N/A   Overcast
3:35 AM 39.2 °F 35.9 °F 37.4 °F 93% 30.18 in 10.0 mi WNW 4.6 mph - N/A   Overcast
3:55 AM 39.2 °F 35.9 °F 37.4 °F 93% 30.19 in 10.0 mi Variable 4.6 mph - N/A   Overcast
4:15 AM 39.2 °F 33.6 °F 37.4 °F 93% 30.18 in 10.0 mi NW 8.1 mph - N/A   Overcast
4:35 AM 39.2 °F 35.9 °F 37.4 °F 93% 30.20 in 10.0 mi WNW 4.6 mph - N/A   Overcast
4:55 AM 39.2 °F 35.0 °F 35.6 °F 87% 30.21 in 10.0 mi NW 5.8 mph - N/A   Overcast
5:15 AM 39.2 °F 35.0 °F 35.6 °F 87% 30.22 in 10.0 mi Variable 5.8 mph - N/A   Overcast
5:35 AM 39.2 °F 35.0 °F 35.6 °F 87% 30.21 in 10.0 mi WNW 5.8 mph 11.5 mph N/A   Overcast
5:55 AM 37.4 °F 32.1 °F 35.6 °F 93% 30.22 in 10.0 mi NW 6.9 mph - N/A   Overcast
6:15 AM 37.4 °F 32.1 °F 35.6 °F 93% 30.22 in 10.0 mi NNW 6.9 mph - N/A   Overcast
6:35 AM 37.4 °F 31.4 °F 35.6 °F 93% 30.22 in 10.0 mi NNW 8.1 mph - N/A   Overcast
6:55 AM 37.4 °F 30.8 °F 35.6 °F 93% 30.22 in 10.0 mi NNW 9.2 mph - N/A   Overcast
7:15 AM 35.6 °F 29.9 °F 33.8 °F 93% 30.22 in 10.0 mi NNW 6.9 mph - N/A   Mostly Cloudy
7:35 AM 35.6 °F 32.8 °F 33.8 °F 93% 30.22 in 10.0 mi NNW 3.5 mph - N/A   Scattered Clouds
7:55 AM 35.6 °F - 33.8 °F 93% 30.24 in 10.0 mi Calm Calm - N/A   Overcast
8:15 AM 37.4 °F - 35.6 °F 93% 30.26 in 10.0 mi Calm Calm - N/A   Overcast
8:35 AM 37.4 °F 34.9 °F 35.6 °F 93% 30.29 in 10.0 mi SSW 3.5 mph - N/A   Unknown
8:55 AM 37.4 °F - 35.6 °F 93% 30.29 in 10.0 mi Calm Calm - N/A   Unknown
9:15 AM 37.4 °F 33.8 °F 35.6 °F 93% 30.30 in 10.0 mi Variable 4.6 mph - N/A   Unknown
9:35 AM 37.4 °F 32.8 °F 33.8 °F 87% 30.31 in 10.0 mi Variable 5.8 mph - N/A   Unknown
9:55 AM 37.4 °F 32.8 °F 33.8 °F 87% 30.32 in 10.0 mi Variable 5.8 mph - N/A   Unknown
10:15 AM 37.4 °F 32.8 °F 32.0 °F 81% 30.33 in 10.0 mi Variable 5.8 mph - N/A   Unknown
10:35 AM 39.2 °F 34.2 °F 30.2 °F 70% 30.33 in 10.0 mi Variable 6.9 mph 13.8 mph N/A   Unknown
10:55 AM 39.2 °F 34.2 °F 32.0 °F 75% 30.33 in 10.0 mi Variable 6.9 mph - N/A   Scattered Clouds
11:15 AM 39.2 °F 32.5 °F 30.2 °F 70% 30.33 in 10.0 mi NW 10.4 mph - N/A   Unknown
11:35 AM 41.0 °F 36.4 °F 26.6 °F 57% 30.34 in 10.0 mi Variable 6.9 mph 15.0 mph N/A   Unknown
11:55 AM 41.0 °F 33.9 °F 26.6 °F 57% 30.34 in 10.0 mi NW 12.7 mph 19.6 mph N/A   Clear
12:15 PM 41.0 °F 34.3 °F 26.6 °F 57% 30.34 in 10.0 mi NW 11.5 mph 19.6 mph N/A   Clear
12:35 PM 41.0 °F 33.9 °F 26.6 °F 57% 30.33 in 10.0 mi NW 12.7 mph - N/A   Clear
12:55 PM 41.0 °F 34.7 °F 26.6 °F 57% 30.32 in 10.0 mi NNW 10.4 mph - N/A   Clear
1:15 PM 42.8 °F 37.0 °F 24.8 °F 49% 30.32 in 10.0 mi NW 10.4 mph 19.6 mph N/A   Clear
1:35 PM 42.8 °F 36.2 °F 24.8 °F 49% 30.31 in 10.0 mi NW 12.7 mph 20.7 mph N/A   Clear
1:55 PM 42.8 °F 38.0 °F 24.8 °F 49% 30.30 in 10.0 mi WNW 8.1 mph 20.7 mph N/A   Clear
2:15 PM 42.8 °F 38.0 °F 24.8 °F 49% 30.31 in 10.0 mi WNW 8.1 mph 19.6 mph N/A   Clear
2:55 PM 44.6 °F 39.7 °F 24.8 °F 46% 30.30 in 10.0 mi West 9.2 mph - N/A   Scattered Clouds
3:15 PM 42.8 °F 38.0 °F 24.8 °F 49% 30.30 in 10.0 mi NW 8.1 mph - N/A   Scattered Clouds
3:35 PM 44.6 °F 40.2 °F 24.8 °F 46% 30.30 in 10.0 mi WNW 8.1 mph - N/A   Partly Cloudy
3:55 PM 44.6 °F 40.2 °F 24.8 °F 46% 30.30 in 10.0 mi WNW 8.1 mph 15.0 mph N/A   Scattered Clouds
4:15 PM 44.6 °F 42.2 °F 24.8 °F 46% 30.30 in 10.0 mi Variable 4.6 mph - N/A   Partly Cloudy
4:35 PM 42.8 °F 38.0 °F 24.8 °F 49% 30.29 in 10.0 mi WNW 8.1 mph 13.8 mph N/A   Clear
4:55 PM 42.8 °F 38.0 °F 24.8 °F 49% 30.29 in 10.0 mi NW 8.1 mph - N/A   Clear
5:15 PM 42.8 °F 38.6 °F 26.6 °F 53% 30.28 in 10.0 mi NW 6.9 mph 15.0 mph N/A   Clear
5:35 PM 42.8 °F 39.3 °F 26.6 °F 53% 30.29 in 10.0 mi NW 5.8 mph - N/A   Clear
5:55 PM 41.0 °F 39.0 °F 28.4 °F 61% 30.30 in 10.0 mi NW 3.5 mph - N/A   Mostly Cloudy
6:15 PM 41.0 °F 38.0 °F 26.6 °F 57% 30.30 in 10.0 mi NW 4.6 mph - N/A   Partly Cloudy
6:35 PM 39.2 °F - 26.6 °F 61% 30.30 in 10.0 mi Calm Calm - N/A   Clear
6:55 PM 39.2 °F - 26.6 °F 61% 30.31 in 10.0 mi Calm Calm - N/A   Clear
7:15 PM 37.4 °F - 28.4 °F 70% 30.32 in 10.0 mi Calm Calm - N/A   Clear
7:35 PM 35.6 °F 32.8 °F 26.6 °F 70% 30.33 in 10.0 mi SSW 3.5 mph - N/A   Clear
7:55 PM 35.6 °F - 26.6 °F 70% 30.34 in 10.0 mi Calm Calm - N/A   Scattered Clouds
8:15 PM 33.8 °F - 28.4 °F 81% 30.34 in 10.0 mi Calm Calm - N/A   Partly Cloudy
8:35 PM 33.8 °F 30.8 °F 28.4 °F 81% 30.34 in 10.0 mi SSW 3.5 mph - N/A   Partly Cloudy
8:55 PM 35.6 °F - 28.4 °F 75% 30.34 in 10.0 mi Calm Calm - N/A   Clear
9:15 PM 33.8 °F - 28.4 °F 81% 30.34 in 10.0 mi Calm Calm - N/A   Clear
9:35 PM 33.8 °F 30.8 °F 28.4 °F 81% 30.35 in 10.0 mi SSW 3.5 mph - N/A   Clear
9:55 PM 33.8 °F - 28.4 °F 81% 30.35 in 10.0 mi Calm Calm - N/A   Clear
10:15 PM 32.0 °F - 28.4 °F 87% 30.35 in 10.0 mi Calm Calm - N/A   Clear
10:35 PM 32.0 °F - 28.4 °F 87% 30.35 in 10.0 mi Calm Calm - N/A   Clear
10:55 PM 32.0 °F - 28.4 °F 87% 30.35 in 10.0 mi Calm Calm - N/A   Clear
11:15 PM 33.8 °F - 28.4 °F 81% 30.35 in 10.0 mi Calm Calm - N/A   Clear
11:35 PM 32.0 °F - 28.4 °F 87% 30.35 in 10.0 mi Calm Calm - N/A   Clear
11:55 PM 30.2 °F - 28.4 °F 93% 30.35 in 10.0 mi Calm Calm - N/A   Clear